Location: Passau
(48.5721°N, 13.4363°E)
Time: 14:43:22
(UTC+01:00)

OTV 5 (USA 277) - Visible Passes

Search period start: 25 February 2018 00:00
Search period end: 07 March 2018 00:00
Orbit: 404 x 417 km, 43.0° (Epoch: 07 September)

Date Brightness Start Highest point End Pass type
(mag) Time Alt. Az. Time Alt. Az. Time Alt. Az.
25 Feb ? 04:15:03 11° SE 04:15:03 11° SE 04:15:14 10° ESE visible
25 Feb ? 05:47:48 13° SW 05:50:09 28° S 05:53:02 10° ESE visible
26 Feb ? 04:59:06 25° S 04:59:13 25° SSE 05:02:00 10° ESE visible
27 Feb ? 04:10:22 13° ESE 04:10:22 13° ESE 04:10:53 10° ESE visible
27 Feb ? 05:43:07 17° SW 05:45:07 31° S 05:48:04 10° ESE visible
28 Feb ? 04:54:23 30° SSE 04:54:23 30° SSE 04:57:06 10° ESE visible
01 Mar ? 04:05:38 13° ESE 04:05:38 13° ESE 04:06:05 10° ESE visible
01 Mar ? 05:38:23 18° SW 05:40:04 27° S 05:42:54 10° SE visible
02 Mar ? 04:49:40 28° SSE 04:49:40 28° SSE 04:52:02 10° ESE visible
03 Mar ? 04:00:59 11° ESE 04:00:59 11° ESE 04:01:07 10° ESE visible
03 Mar ? 05:33:44 16° SW 05:34:57 19° SSW 05:37:25 10° SSE visible
04 Mar ? 04:45:06 20° SSE 04:45:06 20° SSE 04:46:44 10° SE visible
05 Mar ? 05:29:19 12° SW 05:29:45 12° SSW 05:31:05 10° S visible
06 Mar ? 04:40:51 10° SSE 04:40:51 10° SSE 04:40:57 10° SSE visible
